Location: Nitra
(48.3167°N, 18.0833°E)
Time: 12:10:24
(UTC+01:00)

STARLINK-1725 - Pass Details

Date: 24 September 2020
Orbit: 378 x 381 km, 53.0° (Epoch: 25 October)

Event Time Altitude Azimuth Distance (km) Brightness Sun altitude
Exits shadow 03:38:59 14° 55° (NE) 1,167 6.1 -28.6°
Drops below altitude 10° 03:39:36 10° 60° (ENE) 1,399 6.6 -28.6°
Sets 03:41:44 0° 69° (ENE) 2,253 7.9 -28.3°
